Weather History for Spokane Felts, WA

Change the Weather History Date:

Tuesday, August 27, 2013

  Actual Average Record
Temperature  
Mean Temperature 70 °F 67 °F  
Max Temperature 86 °F 81 °F 95 °F (1999)
Min Temperature 54 °F 53 °F 45 °F (2007)
Degree Days  
Heating Degree Days 0 2  
Month to date heating degree days 5 14  
Since 1 June heating degree days 110 153  
Since 1 July heating degree days 5 35  
Cooling Degree Days 5 4  
Month to date cooling degree days 216 146  
Year to date cooling degree days 581 364  
Since 1 June cooling degree days 555 357  
Growing Degree Days 20 (Base 50)    
Moisture  
Dew Point 48 °F    
Average Humidity 50    
Maximum Humidity 77    
Minimum Humidity 23    
Precipitation  
Precipitation 0.00 in 0.02 in 0.23 in (2008)
Month to date precipitation 1.71 0.58  
Year to date precipitation 9.67 10.62  
Sea Level Pressure  
Sea Level Pressure 29.89 in    
Wind  
Wind Speed 2 mph (NE)    
Max Wind Speed 7 mph    
Max Gust Speed 12 mph    
Visibility 10 miles    
Events      
T = Trace of Precipitation, MM = Missing Value Source: NWS Daily Summary

Daily Weather History Graph

Daily Weather History Graph

Search for Another Location

Airport:

Trip Planner

Search our weather history database for the weather conditions in past years. The results will help you decide how hot, cold, wet, or windy it might be!

Date:

Astronomy

Aug. 27, 2013 Rise Set
Actual Time 6:01 AM PDT 7:38 PM PDT
Civil Twilight 5:29 AM PDT 8:11 PM PDT
Nautical Twilight 4:49 AM PDT 8:50 PM PDT
Astronomical Twilight 4:06 AM PDT 9:33 PM PDT
Moon 11:02 PM PDT (8/27) 1:36 PM PDT (8/27)
Length of Visible Light 14h 42m
Length of Day
13h 37m
Waning Gibbous, 56% of the Moon is Illuminated
Aug 27
Waning Gibbous
Aug 28
Last Quarter
Sep 5
New
Sep 12
First Quarter
Sep 19
Full

Hourly Weather History & Observations

Time (PDT) Temp. Dew Point Humidity Pressure Visibility Wind Dir Wind Speed Gust Speed Precip Events Conditions
12:53 AM 60.1 °F 48.0 °F 64% 29.94 in 10.0 mi NNE 3.5 mph - N/A   Clear
1:53 AM 57.9 °F 50.0 °F 75% 29.95 in 10.0 mi NNE 4.6 mph - N/A   Scattered Clouds
2:53 AM 59.0 °F 48.0 °F 67% 29.95 in 10.0 mi NE 3.5 mph - N/A   Clear
3:53 AM 55.9 °F 48.9 °F 77% 29.96 in 10.0 mi Calm Calm - N/A   Clear
4:53 AM 55.0 °F 48.0 °F 77% 29.95 in 10.0 mi ENE 3.5 mph - N/A   Clear
5:53 AM 55.9 °F 48.9 °F 77% 29.96 in 10.0 mi NNE 4.6 mph - N/A   Clear
6:53 AM 59.0 °F 50.0 °F 72% 29.96 in 10.0 mi Calm Calm - N/A   Clear
7:53 AM 60.1 °F 51.1 °F 72% 29.98 in 10.0 mi Calm Calm - N/A   Partly Cloudy
8:53 AM 64.9 °F 51.1 °F 61% 29.99 in 10.0 mi Calm Calm - N/A   Clear
9:53 AM 70.0 °F 52.0 °F 53% 29.97 in 10.0 mi Variable 3.5 mph - N/A   Clear
10:53 AM 75.0 °F 46.9 °F 37% 29.96 in 10.0 mi Calm Calm - N/A   Clear
11:53 AM 77.0 °F 48.0 °F 36% 29.93 in 10.0 mi Calm Calm - N/A   Partly Cloudy
12:53 PM 79.0 °F 48.9 °F 35% 29.91 in 10.0 mi Variable 3.5 mph - N/A   Clear
1:53 PM 82.0 °F 46.0 °F 28% 29.89 in 10.0 mi East 5.8 mph - N/A   Partly Cloudy
2:53 PM 82.9 °F 45.0 °F 26% 29.86 in 10.0 mi East 3.5 mph - N/A   Partly Cloudy
3:53 PM 84.9 °F 43.0 °F 23% 29.84 in 10.0 mi Variable 3.5 mph - N/A   Clear
4:53 PM 84.0 °F 46.0 °F 26% 29.83 in 10.0 mi West 3.5 mph - N/A   Clear
5:53 PM 84.0 °F 45.0 °F 25% 29.81 in 10.0 mi NNE 4.6 mph - N/A   Clear
6:53 PM 82.0 °F 46.0 °F 28% 29.80 in 10.0 mi Calm Calm - N/A   Clear
7:53 PM 75.0 °F 46.0 °F 36% 29.81 in 6.0 mi Calm Calm - N/A   Haze
8:53 PM 77.0 °F 45.0 °F 32% 29.80 in 10.0 mi NNE 4.6 mph - N/A   Clear
9:53 PM 73.0 °F 46.0 °F 38% 29.80 in 10.0 mi Calm Calm - N/A   Clear
10:53 PM 66.0 °F 46.9 °F 50% 29.80 in 10.0 mi NNE 3.5 mph - N/A   Clear
11:53 PM 64.9 °F 48.0 °F 54% 29.79 in 10.0 mi NNE 3.5 mph - N/A   Clear